Wind_Speed
11 11 11 11 11 11 11 11 10 9 9 8 8 8 8 8 8 8 9 9 10 9 9 10 10 10 11 11 12 13 13 14 14 15 16 16 16 17 17 18 18 19 19
11 11 11 11 11 11 11 11 10 10 10 9 9 9 9 9 10 10 10 10 10 10 11 11 11 11 11 12 13 14 14 15 16 17 17 18 18 18 19 19 20 20 20
12 12 11 11 11 11 10 10 10 10 10 9 10 11 11 11 11 11 11 11 11 11 11 11 12 12 13 14 15 15 16 17 17 18 18 19 19 20 20 21 21 22 22
12 12 12 12 11 11 11 11 11 11 11 11 11 12 12 12 12 12 12 13 13 13 13 13 14 14 15 16 17 17 18 18 19 19 20 20 21 22 22 23 23 24 24
11 11 11 12 12 12 12 12 12 13 13 13 13 13 13 13 14 14 14 15 15 15 15 15 16 17 17 18 18 19 19 20 20 21 22 23 23 24 25 25 26 26 27
11 11 12 12 12 12 13 13 13 13 14 14 14 14 14 14 14 15 15 16 16 16 17 17 18 18 19 19 20 20 20 21 22 23 24 25 25 26 27 27 28 28 29
11 11 12 12 12 13 14 14 14 14 14 15 15 15 16 16 16 17 17 17 17 17 18 18 19 20 20 21 21 22 22 23 24 25 26 26 27 28 28 29 30 30 31
11 12 12 13 14 14 14 14 14 15 15 15 15 15 15 16 16 17 18 18 19 19 19 20 21 21 21 21 22 23 23 24 26 27 27 28 28 29 29 30 31 32 33
12 12 13 13 14 13 14 14 14 14 14 15 15 15 16 16 17 18 19 19 19 19 20 21 21 21 22 23 24 25 25 26 28 28 29 30 31 31 31 32 33 33 34
13 12 12 12 13 13 14 15 15 15 15 15 15 16 17 17 18 18 19 19 20 20 21 21 22 23 23 24 25 26 27 28 29 30 30 31 32 32 33 33 34 35 36
13 13 13 13 13 14 14 15 15 15 15 16 17 17 17 17 18 19 20 20 21 21 22 23 23 24 24 25 26 27 28 30 30 31 32 32 33 34 35 35 36 37 38
14 13 13 13 14 14 15 15 15 15 15 16 16 17 18 18 19 20 21 21 22 22 23 24 24 25 26 27 28 29 30 30 31 32 33 34 35 35 35 36 36 37 38
14 14 14 14 14 14 14 15 15 15 16 16 17 18 18 19 20 21 22 22 23 24 25 25 26 27 28 28 29 30 31 31 32 33 34 35 35 35 35 35 35 36 37
14 14 14 14 14 14 14 15 16 16 17 17 18 18 19 21 21 22 23 24 25 25 26 27 28 29 29 30 31 31 32 32 33 34 35 36 36 35 35 36 37 38 38
15 15 15 15 15 16 16 17 17 17 18 18 19 20 21 22 23 24 25 25 26 27 27 28 28 29 30 31 31 32 33 34 35 36 36 36 36 36 36 37 38 38 39
16 16 16 16 17 17 17 18 18 18 19 19 20 21 21 23 24 25 26 27 27 28 28 28 28 29 30 31 31 32 34 35 36 37 37 37 37 37 37 38 38 40 41
19 18 18 18 19 19 19 19 19 20 21 21 22 22 23 24 25 26 27 28 28 29 29 29 29 30 31 31 32 33 34 35 36 37 37 37 37 38 38 39 40 41 41
20 20 20 20 20 20 20 21 21 21 22 23 23 24 25 26 26 27 28 29 29 29 29 30 30 31 32 32 33 34 35 37 37 38 38 38 38 39 40 41 42 42 43
21 21 21 21 21 21 22 22 23 23 24 24 25 26 27 27 28 29 29 29 29 29 30 31 31 32 33 34 35 36 37 38 38 39 39 39 40 40 41 42 43 43 44
22 22 22 23 23 24 24 25 25 25 26 26 27 27 27 28 29 29 29 30 30 31 31 32 32 33 34 35 36 38 38 39 40 40 40 41 41 42 42 43 43 44 45
24 24 25 25 26 26 26 27 27 27 28 28 29 29 29 29 29 30 30 31 31 32 32 33 34 35 36 37 38 39 40 41 41 41 41 41 42 42 43 43 44 45 45
26 26 27 28 27 27 27 28 28 28 29 29 30 30 30 30 30 31 31 32 33 33 34 35 36 37 38 39 40 40 41 41 42 42 42 42 42 43 43 44 45 45 46
27 28 28 29 29 29 29 30 30 30 31 31 31 31 31 31 32 32 33 33 34 35 36 37 37 38 40 40 41 42 42 42 43 43 43 43 43 44 44 45 45 46 46
29 29 29 30 30 30 31 31 31 32 32 32 32 33 33 33 34 35 35 35 35 37 38 38 39 41 41 41 42 42 43 43 43 44 44 44 44 45 45 45 46 46 46
30 31 31 31 31 31 32 32 32 32 33 33 34 35 35 36 36 36 36 36 37 38 39 39 40 41 42 42 42 42 43 43 44 44 44 45 45 45 45 46 46 45 45
31 32 32 32 32 32 32 33 33 34 34 35 35 36 36 37 37 37 38 38 39 40 40 41 41 41 42 42 43 43 43 44 44 45 45 45 45 46 46 45 45 44 44
Wind_Direction
236 238 242 245 246 250 254 254 257 257 259 263 271 277 284 290 294 295 294 292 293 293 292 291 289 289 289 288 287 286 287 286 287 287 287 288 287 287 286 286 285 285 285
240 240 242 244 246 251 254 254 257 258 258 260 267 273 279 287 293 297 297 297 293 293 294 294 290 289 289 289 289 288 287 287 287 286 287 287 288 288 287 287 287 287 287
243 242 243 244 245 250 251 253 256 256 257 263 268 274 277 282 285 290 293 296 296 296 296 294 292 290 289 289 289 289 289 288 287 287 287 287 287 287 286 286 286 286 287
243 241 241 242 244 247 252 255 258 260 263 266 271 276 279 282 284 286 289 291 292 292 294 294 292 290 290 289 289 289 289 288 288 289 289 288 288 287 287 287 286 286 287
243 241 243 243 246 249 256 259 262 263 264 269 272 275 277 280 282 285 288 289 290 290 291 292 292 292 292 291 290 290 290 289 289 290 289 289 288 288 288 288 288 288 288
243 244 246 248 251 255 257 261 262 264 266 269 273 276 277 280 282 285 286 287 288 288 290 291 292 292 292 292 291 291 291 291 291 291 290 290 289 288 288 288 288 288 288
247 247 249 250 254 258 260 263 264 266 267 270 273 275 276 278 280 283 286 286 288 288 290 290 291 292 292 291 291 290 291 292 292 292 292 291 291 290 289 289 288 287 288
250 250 252 254 258 260 263 265 266 267 270 273 273 276 278 279 282 286 286 286 288 289 291 292 292 292 293 293 292 292 293 294 294 294 293 293 292 291 289 289 288 288 288
254 258 259 261 262 265 266 267 268 269 272 274 276 276 279 281 283 287 290 290 290 291 292 293 293 293 293 293 292 292 293 294 295 295 295 294 293 292 290 289 289 289 289
258 259 260 262 265 268 269 269 269 271 272 273 276 279 281 283 285 287 289 290 290 292 293 293 293 293 293 293 293 294 294 295 295 295 296 297 296 294 292 291 290 290 290
258 257 258 262 267 269 271 272 272 272 274 276 278 281 284 286 287 289 291 291 292 293 294 294 294 294 294 295 296 296 296 296 297 297 298 298 297 296 295 293 292 292 292
261 260 261 265 269 270 273 273 272 271 274 278 280 282 284 286 289 292 293 293 293 294 295 295 295 295 296 297 297 297 298 298 298 298 298 299 299 298 297 295 294 294 294
260 261 265 268 271 273 274 274 273 273 275 279 282 284 286 288 288 291 293 293 295 296 297 296 296 296 297 297 298 299 299 300 300 300 300 300 300 300 299 297 297 296 296
262 263 266 268 271 273 275 277 277 275 277 280 282 285 288 289 291 292 293 294 295 296 296 297 297 297 297 298 299 300 300 301 302 302 302 301 301 300 299 298 298 298 298
263 265 266 270 273 275 277 279 280 280 280 282 284 286 289 292 292 294 295 296 297 297 298 298 298 298 298 299 300 300 302 303 303 303 302 301 301 300 300 300 300 299 299
264 266 268 271 274 276 278 279 280 281 282 284 286 288 290 293 295 296 297 297 298 298 299 299 299 299 300 301 301 302 303 303 303 303 302 302 301 301 301 301 301 301 300
262 265 268 270 272 276 278 279 279 280 282 284 286 288 291 294 295 295 297 298 299 299 299 299 299 300 301 301 302 303 303 304 304 304 303 302 302 302 302 302 302 302 301
262 265 267 269 272 275 278 279 280 281 283 285 287 289 291 292 294 295 297 299 299 299 300 301 301 301 301 301 302 303 304 304 305 304 304 303 303 303 303 303 303 303 302
262 265 266 268 270 274 276 278 281 282 283 284 285 288 291 292 293 295 297 298 300 300 301 301 301 301 302 302 303 304 305 305 305 305 304 303 303 302 303 304 304 303 303
263 265 266 268 271 273 275 278 280 282 283 284 286 289 291 293 294 295 296 297 298 300 301 302 303 303 303 304 304 305 305 306 306 305 305 304 304 303 304 304 304 304 304
263 265 267 269 271 273 275 277 279 282 283 284 286 288 290 292 293 294 295 296 297 299 301 302 302 303 303 304 305 305 305 306 306 306 306 305 305 305 305 305 305 305 305
264 267 268 270 271 273 275 277 280 282 283 285 286 288 290 292 293 293 294 295 297 299 300 301 302 303 304 304 304 305 305 306 306 306 305 305 305 305 305 305 306 306 305
266 268 270 270 271 273 276 278 280 281 284 285 287 288 290 291 292 293 294 295 296 298 299 301 302 303 304 304 304 305 305 305 305 305 306 306 305 306 306 306 306 306 306
267 269 271 271 273 274 277 278 280 282 284 286 287 288 290 291 291 292 294 295 296 297 299 300 302 303 304 304 304 305 305 305 305 305 305 306 306 306 306 307 307 307 307
268 270 271 272 274 276 277 278 280 282 284 285 287 288 289 290 292 293 294 295 296 298 300 301 302 303 303 304 304 305 305 305 306 306 306 306 306 307 308 308 308 308 308
268 270 272 273 274 276 277 278 280 281 282 284 285 288 289 290 291 293 294 296 297 298 299 301 302 303 303 303 303 304 305 305 306 307 307 307 307 308 309 309 309 309 310
Height
5861 5862 5863 5863 5864 5865 5866 5866 5866 5866 5866 5866 5866 5866 5866 5865 5865 5864 5863 5862 5862 5861 5860 5859 5858 5857 5856 5855 5854 5853 5852 5851 5850 5849 5847 5846 5845 5843 5842 5840 5839 5838 5836
5858 5859 5860 5861 5862 5863 5863 5863 5864 5864 5864 5864 5864 5864 5863 5863 5863 5862 5861 5860 5859 5858 5857 5856 5855 5854 5853 5852 5851 5850 5848 5847 5846 5845 5843 5842 5840 5839 5838 5836 5835 5833 5831
5856 5857 5857 5858 5859 5860 5860 5861 5861 5861 5861 5861 5861 5861 5861 5860 5860 5859 5858 5858 5857 5855 5854 5853 5852 5851 5850 5848 5847 5846 5844 5843 5842 5840 5839 5837 5836 5834 5833 5831 5829 5828 5826
5853 5854 5855 5856 5856 5857 5858 5858 5858 5858 5859 5859 5858 5858 5858 5857 5857 5856 5855 5854 5853 5852 5851 5850 5848 5847 5846 5844 5843 5841 5840 5838 5837 5835 5834 5832 5830 5829 5827 5825 5824 5822 5820
5850 5851 5852 5853 5853 5854 5855 5855 5855 5855 5855 5855 5855 5855 5854 5854 5853 5852 5852 5851 5850 5849 5847 5846 5844 5843 5841 5840 5838 5837 5835 5833 5831 5830 5828 5826 5824 5822 5821 5819 5817 5815 5813
5848 5848 5849 5850 5850 5851 5851 5852 5852 5852 5852 5852 5851 5851 5851 5850 5849 5849 5848 5847 5845 5844 5843 5841 5840 5838 5836 5834 5833 5831 5829 5827 5825 5823 5821 5820 5818 5816 5814 5812 5810 5808 5806
5844 5845 5846 5847 5847 5848 5848 5848 5848 5848 5848 5848 5847 5847 5846 5846 5845 5844 5843 5842 5841 5839 5838 5836 5835 5833 5831 5829 5827 5825 5823 5821 5819 5817 5814 5812 5810 5808 5806 5804 5802 5799 5797
5841 5842 5842 5843 5843 5844 5844 5844 5844 5844 5844 5844 5843 5843 5842 5841 5841 5840 5838 5837 5835 5834 5833 5831 5829 5827 5825 5823 5821 5819 5816 5814 5812 5809 5807 5804 5802 5799 5797 5795 5793 5791 5788
5838 5839 5839 5839 5840 5840 5840 5840 5840 5840 5840 5839 5839 5838 5837 5837 5836 5835 5833 5832 5830 5829 5827 5825 5823 5821 5819 5816 5814 5812 5810 5807 5804 5801 5799 5796 5793 5790 5788 5786 5783 5781 5778
5834 5835 5835 5835 5836 5836 5836 5836 5836 5836 5835 5835 5834 5834 5833 5832 5831 5829 5828 5826 5825 5823 5821 5819 5817 5815 5813 5810 5807 5805 5802 5799 5796 5793 5790 5787 5784 5781 5778 5775 5773 5770 5768
5830 5831 5831 5831 5832 5832 5832 5831 5831 5831 5831 5830 5830 5829 5828 5827 5826 5824 5823 5821 5819 5817 5815 5813 5811 5808 5806 5803 5800 5797 5794 5791 5788 5785 5781 5778 5774 5771 5768 5765 5762 5759 5756
5826 5827 5827 5827 5827 5827 5827 5827 5827 5826 5826 5825 5825 5824 5823 5822 5821 5819 5817 5815 5813 5811 5809 5807 5804 5802 5799 5796 5793 5789 5786 5783 5779 5776 5772 5769 5765 5761 5758 5754 5751 5748 5745
5822 5823 5823 5823 5823 5823 5823 5822 5822 5822 5821 5820 5820 5819 5818 5816 5815 5813 5811 5809 5807 5805 5802 5800 5797 5794 5791 5788 5785 5781 5778 5774 5771 5767 5763 5759 5755 5752 5748 5744 5741 5737 5734
5818 5818 5819 5819 5819 5819 5818 5818 5817 5817 5816 5815 5815 5813 5812 5811 5809 5807 5805 5803 5800 5798 5795 5792 5790 5787 5784 5780 5777 5773 5770 5766 5762 5758 5754 5750 5746 5742 5738 5735 5731 5727 5723
5813 5814 5814 5814 5814 5814 5814 5813 5812 5812 5811 5810 5809 5808 5807 5805 5803 5801 5799 5796 5794 5791 5788 5785 5782 5779 5776 5773 5769 5765 5761 5757 5753 5749 5745 5741 5736 5732 5729 5724 5720 5716 5712
5808 5809 5809 5809 5809 5809 5808 5808 5807 5806 5805 5805 5803 5802 5800 5799 5796 5794 5792 5789 5786 5784 5781 5777 5774 5771 5768 5764 5761 5757 5753 5748 5744 5740 5735 5731 5727 5723 5718 5714 5710 5705 5700
5803 5803 5803 5803 5803 5803 5802 5802 5801 5800 5799 5798 5797 5796 5794 5792 5790 5787 5785 5782 5779 5776 5773 5770 5766 5763 5760 5756 5752 5748 5744 5740 5735 5730 5726 5721 5717 5712 5708 5703 5698 5693 5688
5796 5797 5797 5797 5797 5797 5796 5795 5795 5794 5793 5791 5790 5789 5787 5785 5782 5780 5777 5774 5771 5768 5765 5761 5758 5755 5751 5747 5743 5739 5735 5730 5725 5721 5716 5711 5706 5701 5697 5692 5687 5681 5676
5790 5790 5790 5790 5790 5790 5789 5789 5788 5787 5786 5784 5783 5781 5779 5777 5775 5772 5769 5766 5763 5760 5756 5753 5749 5746 5742 5738 5734 5730 5725 5720 5715 5710 5706 5701 5696 5691 5685 5680 5675 5670 5664
5783 5783 5783 5783 5783 5783 5782 5781 5781 5780 5778 5777 5775 5773 5771 5769 5766 5763 5761 5758 5755 5751 5748 5744 5741 5737 5733 5729 5724 5720 5715 5710 5705 5700 5695 5690 5684 5679 5674 5668 5663 5658 5652
5775 5776 5776 5776 5775 5775 5774 5774 5773 5771 5770 5768 5767 5765 5763 5760 5758 5755 5752 5749 5746 5742 5739 5735 5732 5728 5723 5719 5714 5710 5705 5700 5694 5689 5683 5678 5673 5668 5662 5656 5651 5645 5639
5767 5767 5767 5767 5767 5767 5766 5765 5764 5763 5761 5760 5758 5756 5753 5751 5749 5746 5743 5740 5737 5733 5730 5726 5722 5718 5713 5709 5704 5699 5694 5689 5683 5678 5672 5667 5661 5656 5650 5644 5638 5633 5627
5758 5759 5759 5758 5758 5758 5757 5756 5755 5754 5752 5751 5748 5746 5744 5742 5739 5736 5733 5730 5727 5723 5720 5716 5712 5707 5703 5698 5693 5688 5683 5678 5672 5666 5661 5656 5650 5644 5638 5632 5626 5620 5614
5749 5749 5749 5749 5748 5748 5747 5746 5745 5744 5742 5741 5739 5737 5734 5732 5729 5726 5723 5720 5717 5713 5709 5705 5701 5697 5692 5687 5682 5677 5672 5666 5660 5655 5649 5644 5638 5632 5626 5620 5614 5608 5602
5739 5739 5739 5739 5738 5738 5737 5736 5735 5733 5732 5730 5728 5726 5724 5721 5719 5716 5713 5709 5706 5702 5698 5694 5690 5685 5680 5675 5670 5665 5660 5654 5649 5643 5637 5632 5626 5620 5614 5608 5602 5595 5589
5728 5728 5728 5728 5727 5727 5726 5725 5724 5723 5721 5719 5717 5715 5713 5710 5708 5705 5702 5698 5695 5691 5687 5682 5678 5673 5669 5664 5659 5653 5648 5643 5637 5631 5625 5620 5614 5608 5602 5596 5590 5584 5577